Location: Saint Louis
(38.6272°N, 90.1978°W)
Time: 10:01:59
(UTC-05:00)

ISS - Pass Details

Date: 06 April 2013
Orbit: 402 x 403 km, 51.6° (Epoch: 27 June)

Event Time Altitude Azimuth Distance (km) Brightness Sun altitude
Rises 20:19:52 0° 225° (SW) 2,309 0.9 -10.4°
Reaches altitude 10° 20:21:56 10° 222° (SW) 1,458 -0.2 -10.8°
Maximum altitude 20:25:11 70° 139° (SE) 439 -3.4 -11.4°
Drops below altitude 10° 20:28:30 10° 55° (NE) 1,486 -0.8 -12.0°
Enters shadow 20:28:54 - 55° (NE) 1,651 -0.6 -12.1°
